STARLINK-34191

Satellite information

Favourite Embed

Satellite Type and Status

PAYLOADIN ORBIT

Key statistics

Satellite STARLINK-34191 at a glance.

Uptime

199

Days in orbit

Revolutions

≈ 15.3

Per day

Orbit

LEO

Low Earth Orbit

Inclination

53.2

Latest

Satellite identification and parameters

Extended collection of information and parameters for STARLINK-34191.

Object identification

Identified? True

Debris? False

Object name: STARLINK-34191

International designator: 2025-113G

Object number (NORAD): 64176

Object ID (CCSDS): 64176

Country: UNITED STATES OF AMERICA (US)

Current information (Y/N): Y

RCS size: LARGE

Orbital parameters

Period: 94.103 minutes

Inclination: 53.1578 deg

SMA: 6853.256 km

Apoapsis: 476.212 km

Periapsis: 474.029 km

RAAN: 140.4815 deg

Eccentricy: 0.00015926

Argument of periapsis: 98.1302 deg

Mean anomaly: 261.9879 deg

Mean motion: 15.30232229 rev/day

Mean motion (dot): 0.000435 rev/day2

B* drag term: 0.0014707702 1/REarth

Two-line elements (TLE)

Creation date: Dec. 11, 2025, 7:14 p.m.

Reference frame: TEME

Reference center: EARTH

Epoch: Dec. 11, 2025, 11:06 a.m. UTC

TLE line 0: 0 STARLINK-34191

TLE line 1: 1 64176U 25113G 25345.46314091 .00043500 00000-0 14708-2 0 9997

TLE line 2: 2 64176 53.1578 140.4815 0001593 98.1302 261.9879 15.30232229 31565

Live tracking on map

Real-time ground track for satellite STARLINK-34191.

In-orbit conjunctions

There are no conjunctions computed for STARLINK-34191, at the moment. Check back to stay up to date, as we update our databases every day.

Go to all conjunctions

Associated space launch

A batch of 27 satellites for the Starlink mega-constellation - SpaceX's project for space-based Internet communication system.

STARLINK-34191 was lifted into orbit during the mission ‘Falcon 9 Block 5 | Starlink Group 10-32’, on board a Falcon 9 space rocket.

The launch took place on May 28, 2025, 1:30 p.m. from Launch Complex 39A.

For more information about the launch, click the button.

Launch to space Falcon 9 Block 5 | Starlink Group 10-32
Falcon 9 Block 5 | Starlink Group 10-32

Agency: SpaceX

Status: Launch Successful

Launch date: May 28, 2025, 1:30 p.m. UTC

Rocket: Falcon 9

Launch pad: Launch Complex 39A

Location: Kennedy Space Center, FL, USA

...

Latest news about this satellite

News about space launch
Launch Roundup: Chinese asteroid mission, Electron, and Falcon 9 set to launch

This week, China will launch a near-Earth asteroid sample return mission amongst several other missions.… The post Launch Roundup: Chinese asteroid mission, Electron, and Falcon 9 set to launch appeared first on NASASpaceFlight.com.

News about space launch
Live coverage: SpaceX to launch 27 Starlink satellites on Falcon 9 launch from NASA’s Kennedy Space Center

The Starlink 10-32 mission will see a Falcon 9 rocket fly in a north-easterly trajectory after launching from Launch Complex 39A at NASA's Kennedy Space Center. SpaceX is targeting a liftoff at 9:30 a.m. EDT (1330 UTC).


Newsletter sign-up

Weekly statistics, charts and insights to help you stay on top of the space industry.